Showing default

SENTINEL 1B, 41456

Orbit data source: Space-Track

SENTINEL 1B, 41456 is an ESA payload satellite in SSO that was launched on Mon, 25 Apr 2016 UTC via a SOYUZ-ST-A launch vehicle from the French Guiana (FRGUI). Payload-class satellites include a variety of spacecraft equipped with specific instruments for various scientific and technological missions. These include communications satellites like Starlink; space stations such as the ISS; scientific satellites like the Hubble; Earth observation satellites from companies like Planet Labs, Umbra, and HawkEye 360; GPS; miniature CubeSats for education and research; and military/defense satellites.

Loading next visibility...
Identifier
41456, 2016-025A
Orbit
SSO
Country
Flag of ESAESA
Related business
Manufacturer
Thales Alenia
Mission
Non-operational Civil Radar Imaging
Bus & Motor
PRIMA, AOCS
Mass
2,157 kg wet, 2,027 kg dry
Launch date (UTC)
2016-04-25 (10 years ago)
Launch vehicle
SOYUZ-ST-A
Launch site
French Guiana (FRGUI)
Object type
Payload
Rocket body
Debris
Shape & HBR
Box + 4 Pan, 10.5 m
Radar Cross Section
19.678 m², Large (>1 m²)

Expand to show TLE details & history
Last TLE update: 15 hours ago

TLE from 15 hours ago
0 SENTINEL 1B
1 41456U 16025A   26033.61248293  .00006291  00000-0  52944-3 0  9998
2 41456  98.1107  89.1305 0015899 217.1677 142.8444 14.98527444523620
Epoch: 2026-02-02T14:41Z
TLE epoch observation values (Epoch: 2026-02-02T14:41:58.525Z)
Latitude
-0.00009°
Longitude
95.83139°
Altitude
583.3 km
Speed
7.564 km/s
True Right ascension
05h 56m 31s
True Declination
0° 00' 00"
Sunlit
Object was in full shadow at epoch
Visualization orbit readout
Latitude
Unknown
Longitude
Unknown
Altitude
Unknown
Speed
Unknown
Apparent Right ascension
Unknown
Apparent Declination
Unknown
Sunlit
N/A
Visualization observer readout
Local Sidereal Time
07:34:43
Azimuth
Unknown
Elevation
Unknown
Doppler factor
Unknown
Orbital elements
Apogee altitude
579.516 km
Perigee altitude
557.427 km
Semi-major axis
6,946.608 km
Eccentricity
0.00159
Inclination
98.1107°
RAAN
89.1305°
Arg. of periapsis
217.1677°
True anomaly
142.95426°
Mean anomaly
142.8444°
Eccentric anomaly
142.89935°
Mean motion
3.74873 °/min
Orbital period
96.03 mins
BSTAR
0.00052944
Loading maneuver chart data...
Computing Atmospheric mass density...
Loading historical data...
Loading historical data...
Loading historical data...
Loading historical data...
Loading historical data...
Loading historical data...
Loading historical data...

Documentation

Showing up to 5 results
|